When you browse on this site, cookies collect data to enhance your experience and personalize the content and advertising you see.
Visit our Privacy Policy to learn more. By continuing to use the site, you agree to this use of cookies and data.
  • In United Kingdom
  • List of Countries
  • For 7 days
  • Water Temperature
  • Weather Map
  • Weather Widgets
  • user-avatar
    Login

    Hourly Weather Dinagepoor

    Today, 18 October, Friday

    Time Temperature Precipitation Wind Pressure Humidity
    00:00 +25°C° 0 mm 0 mps 757 mmHg 79%
    01:00 +25°C° 0 mm 0 mps 757 mmHg 80%
    02:00 +24°C° 0 mm 0 mps 756 mmHg 81%
    03:00 +24°C° 0 mm 0 mps 756 mmHg 81%
    04:00 +24°C° 0 mm 0 mps 756 mmHg 82%
    05:00 +26°C° 0 mm 1 mps 756 mmHg 83%
    06:00 +25°C° 0 mm 1 mps 757 mmHg 87%
    07:00 +27°C° 0 mm 1 mps 758 mmHg 82%
    08:00 +28°C° 0 mm 2 mps 758 mmHg 78%
    09:00 +30°C° 0 mm 2 mps 758 mmHg 74%
    10:00 +31°C° 0.1 mm 2 mps 758 mmHg 69%
    11:00 +32°C° 0.1 mm 2 mps 757 mmHg 65%
    12:00 +32°C° 0.1 mm 2 mps 757 mmHg 61%
    13:00 +33°C° 0 mm 1 mps 756 mmHg 59%
    14:00 +33°C° 0 mm 1 mps 756 mmHg 58%
    15:00 +33°C° 0 mm 1 mps 755 mmHg 57%
    16:00 +32°C° 0 mm 1 mps 755 mmHg 61%
    17:00 +31°C° 0 mm 1 mps 755 mmHg 64%
    18:00 +27°C° 0 mm 0 mps 755 mmHg 67%
    19:00 +27°C° 0 mm 0 mps 755 mmHg 68%
    20:00 +28°C° 0 mm 1 mps 756 mmHg 69%
    21:00 +28°C° 0 mm 1 mps 757 mmHg 70%
    22:00 +27°C° 0 mm 1 mps 757 mmHg 70%
    23:00 +27°C° 0 mm 1 mps 757 mmHg 70%

    Tomorrow, 19 October, Saturday

    Time Temperature Precipitation Wind Pressure Humidity
    00:00 +27°C° 0 mm 1 mps 757 mmHg 71%
    01:00 +26°C° 0 mm 1 mps 757 mmHg 72%
    02:00 +26°C° 0 mm 1 mps 756 mmHg 73%
    03:00 +26°C° 0 mm 1 mps 756 mmHg 74%
    04:00 +26°C° 0 mm 1 mps 756 mmHg 74%
    05:00 +26°C° 0 mm 1 mps 757 mmHg 74%
    06:00 +26°C° 0 mm 1 mps 757 mmHg 74%
    07:00 +27°C° 0 mm 2 mps 757 mmHg 72%
    08:00 +28°C° 0 mm 2 mps 758 mmHg 69%
    09:00 +29°C° 0 mm 2 mps 759 mmHg 67%
    10:00 +31°C° 0 mm 1 mps 758 mmHg 63%
    11:00 +32°C° 0 mm 1 mps 758 mmHg 59%
    12:00 +33°C° 0 mm 1 mps 758 mmHg 55%
    13:00 +33°C° 0 mm 1 mps 757 mmHg 54%
    14:00 +33°C° 0 mm 1 mps 756 mmHg 54%
    15:00 +34°C° 0 mm 2 mps 755 mmHg 54%
    16:00 +32°C° 0 mm 2 mps 755 mmHg 58%
    17:00 +31°C° 0 mm 1 mps 755 mmHg 61%
    18:00 +29°C° 0 mm 1 mps 755 mmHg 65%
    19:00 +29°C° 0 mm 1 mps 756 mmHg 67%
    20:00 +28°C° 0 mm 1 mps 756 mmHg 69%
    21:00 +27°C° 0 mm 1 mps 757 mmHg 71%
    22:00 +27°C° 0 mm 1 mps 757 mmHg 72%
    23:00 +27°C° 0 mm 1 mps 757 mmHg 72%

    Day after tomorrow, 20 October, Sunday

    Time Temperature Precipitation Wind Pressure Humidity
    00:00 +27°C° 0 mm 1 mps 757 mmHg 73%
    01:00 +26°C° 0 mm 1 mps 757 mmHg 73%
    02:00 +26°C° 0 mm 1 mps 756 mmHg 74%
    03:00 +26°C° 0 mm 1 mps 756 mmHg 74%
    04:00 +26°C° 0 mm 1 mps 756 mmHg 75%
    05:00 +25°C° 0 mm 1 mps 757 mmHg 77%
    06:00 +25°C° 0 mm 1 mps 757 mmHg 78%
    07:00 +27°C° 0 mm 1 mps 757 mmHg 75%
    08:00 +28°C° 0 mm 1 mps 758 mmHg 72%
    09:00 +29°C° 0 mm 1 mps 759 mmHg 69%
    10:00 +30°C° 0 mm 1 mps 758 mmHg 66%
    11:00 +31°C° 0 mm 2 mps 757 mmHg 62%
    12:00 +32°C° 0 mm 2 mps 757 mmHg 59%
    13:00 +32°C° 0 mm 2 mps 756 mmHg 60%
    14:00 +32°C° 0 mm 2 mps 755 mmHg 60%
    15:00 +32°C° 0 mm 2 mps 755 mmHg 61%
    16:00 +31°C° 0 mm 2 mps 755 mmHg 65%
    17:00 +30°C° 0 mm 2 mps 755 mmHg 69%
    18:00 +29°C° 0 mm 2 mps 755 mmHg 73%
    19:00 +28°C° 0.1 mm 2 mps 755 mmHg 76%
    20:00 +28°C° 0.1 mm 2 mps 756 mmHg 79%
    21:00 +27°C° 0.1 mm 2 mps 756 mmHg 82%
    22:00 +27°C° 0 mm 2 mps 756 mmHg 83%
    23:00 +26°C° 0 mm 2 mps 756 mmHg 84%

    21 October, Monday

    Time Temperature Precipitation Wind Pressure Humidity
    00:00 +26°C° 0 mm 2 mps 756 mmHg 85%
    01:00 +26°C° 0 mm 2 mps 756 mmHg 86%
    02:00 +26°C° 0 mm 2 mps 755 mmHg 87%
    03:00 +25°C° 0 mm 2 mps 755 mmHg 88%
    04:00 +25°C° 0 mm 2 mps 755 mmHg 89%
    05:00 +25°C° 0 mm 1 mps 755 mmHg 89%
    06:00 +25°C° 0 mm 1 mps 755 mmHg 89%
    07:00 +26°C° 0 mm 2 mps 756 mmHg 84%
    08:00 +27°C° 0 mm 2 mps 757 mmHg 79%
    09:00 +29°C° 0 mm 3 mps 757 mmHg 74%
    10:00 +29°C° 0.1 mm 3 mps 756 mmHg 73%
    11:00 +30°C° 0.1 mm 3 mps 756 mmHg 71%
    12:00 +30°C° 0.1 mm 4 mps 755 mmHg 70%
    13:00 +30°C° 0 mm 3 mps 755 mmHg 67%
    14:00 +31°C° 0 mm 3 mps 754 mmHg 64%
    15:00 +31°C° 0 mm 3 mps 753 mmHg 61%
    16:00 +30°C° 0 mm 2 mps 753 mmHg 65%
    17:00 +29°C° 0 mm 2 mps 753 mmHg 68%
    18:00 +28°C° 0 mm 1 mps 753 mmHg 72%
    19:00 +28°C° 0 mm 1 mps 753 mmHg 72%
    20:00 +27°C° 0 mm 1 mps 754 mmHg 73%
    21:00 +27°C° 0 mm 1 mps 754 mmHg 73%
    22:00 +27°C° 0 mm 1 mps 754 mmHg 74%
    23:00 +27°C° 0 mm 1 mps 754 mmHg 75%

    22 October, Tuesday

    Time Temperature Precipitation Wind Pressure Humidity
    00:00 +26°C° 0 mm 1 mps 754 mmHg 76%
    01:00 +26°C° 0 mm 1 mps 754 mmHg 78%
    02:00 +26°C° 0 mm 1 mps 754 mmHg 80%
    03:00 +25°C° 0 mm 1 mps 754 mmHg 82%
    04:00 +25°C° 0 mm 1 mps 754 mmHg 83%
    05:00 +25°C° 0 mm 1 mps 754 mmHg 84%
    06:00 +24°C° 0 mm 1 mps 754 mmHg 85%
    07:00 +26°C° 0 mm 1 mps 755 mmHg 80%
    08:00 +27°C° 0 mm 2 mps 755 mmHg 74%
    09:00 +28°C° 0 mm 2 mps 756 mmHg 69%
    10:00 +29°C° 0 mm 2 mps 755 mmHg 65%
    11:00 +30°C° 0 mm 2 mps 755 mmHg 61%
    12:00 +31°C° 0 mm 2 mps 754 mmHg 56%
    13:00 +32°C° 0 mm 2 mps 754 mmHg 55%
    14:00 +33°C° 0 mm 3 mps 753 mmHg 53%
    15:00 +33°C° 0 mm 3 mps 752 mmHg 51%
    16:00 +31°C° 0 mm 3 mps 752 mmHg 55%
    17:00 +29°C° 0 mm 2 mps 752 mmHg 58%
    18:00 +28°C° 0 mm 2 mps 752 mmHg 61%
    19:00 +27°C° 0 mm 2 mps 752 mmHg 62%
    20:00 +26°C° 0 mm 1 mps 753 mmHg 63%
    21:00 +26°C° 0 mm 1 mps 753 mmHg 64%
    22:00 +26°C° 0 mm 1 mps 754 mmHg 65%
    23:00 +25°C° 0 mm 1 mps 754 mmHg 67%

    23 October, Wednesday

    Time Temperature Precipitation Wind Pressure Humidity
    00:00 +25°C° 0 mm 1 mps 754 mmHg 68%
    01:00 +25°C° 0 mm 1 mps 754 mmHg 69%
    02:00 +22°C° 0 mm 0 mps 753 mmHg 70%
    03:00 +22°C° 0 mm 0 mps 753 mmHg 72%
    04:00 +22°C° 0 mm 0 mps 753 mmHg 72%
    05:00 +22°C° 0 mm 0 mps 753 mmHg 72%
    06:00 +22°C° 0 mm 0 mps 753 mmHg 73%
    07:00 +23°C° 0 mm 0 mps 754 mmHg 69%
    08:00 +25°C° 0 mm 0 mps 754 mmHg 66%
    09:00 +26°C° 0 mm 0 mps 755 mmHg 62%
    10:00 +27°C° 0 mm 0 mps 755 mmHg 58%
    11:00 +30°C° 0 mm 1 mps 754 mmHg 54%
    12:00 +32°C° 0 mm 1 mps 754 mmHg 51%
    13:00 +32°C° 0 mm 2 mps 753 mmHg 50%
    14:00 +32°C° 0 mm 2 mps 753 mmHg 49%
    15:00 +32°C° 0 mm 2 mps 752 mmHg 49%
    16:00 +30°C° 0 mm 2 mps 752 mmHg 53%
    17:00 +29°C° 0 mm 2 mps 752 mmHg 57%
    18:00 +27°C° 0 mm 2 mps 752 mmHg 61%
    19:00 +27°C° 0 mm 2 mps 753 mmHg 61%
    20:00 +26°C° 0 mm 2 mps 753 mmHg 62%
    21:00 +26°C° 0 mm 1 mps 753 mmHg 62%
    22:00 +25°C° 0 mm 1 mps 754 mmHg 64%
    23:00 +25°C° 0 mm 1 mps 754 mmHg 66%
    Show more